TimeCST,TemperatureF,Dew PointF,Humidity,Sea Level PressureIn,VisibilityMPH,Wind Direction,Wind SpeedMPH,Gust SpeedMPH,PrecipitationIn,Events,Conditions,WindDirDegrees,DateUTC
12:41 AM,19.4,10.4,68,30.24,10.0,NNE,4.6,-,N/A,,Mostly Cloudy,30,2013-03-01 06:41:00
12:53 AM,19.9,10.9,68,30.32,10.0,NNE,4.6,-,N/A,,Overcast,30,2013-03-01 06:53:00
1:53 AM,19.0,10.9,71,30.33,10.0,NNE,3.5,-,N/A,,Overcast,30,2013-03-01 07:53:00
2:53 AM,18.0,10.9,74,30.34,10.0,Calm,Calm,-,N/A,,Overcast,0,2013-03-01 08:53:00
4:53 AM,19.0,12.0,74,30.36,10.0,North,6.9,-,N/A,,Overcast,10,2013-03-01 10:53:00
5:53 AM,19.4,12.2,74,30.30,10.0,NNE,3.5,-,N/A,,Overcast,30,2013-03-01 11:53:00
6:53 AM,19.9,12.9,74,30.39,10.0,NNE,4.6,-,N/A,,Overcast,20,2013-03-01 12:53:00
7:53 AM,21.0,12.9,71,30.40,10.0,NNE,4.6,-,N/A,,Overcast,20,2013-03-01 13:53:00
8:53 AM,21.9,14.0,72,30.41,10.0,NNE,5.8,-,N/A,,Overcast,30,2013-03-01 14:53:00
9:53 AM,21.9,12.9,68,30.43,10.0,NNE,10.4,-,N/A,,Overcast,30,2013-03-01 15:53:00
10:53 AM,23.0,14.0,68,30.43,10.0,ENE,9.2,-,N/A,,Overcast,70,2013-03-01 16:53:00
11:53 AM,25.0,14.0,63,30.43,10.0,NE,8.1,16.1,N/A,,Overcast,40,2013-03-01 17:53:00
12:53 PM,26.1,14.0,60,30.42,10.0,North,6.9,-,N/A,,Overcast,350,2013-03-01 18:53:00
1:53 PM,26.1,14.0,60,30.40,10.0,NNW,9.2,-,N/A,,Mostly Cloudy,340,2013-03-01 19:53:00
2:01 PM,26.6,15.8,64,30.32,10.0,North,6.9,-,N/A,,Scattered Clouds,360,2013-03-01 20:01:00
2:53 PM,28.0,15.1,58,30.39,10.0,NNE,5.8,-,N/A,,Clear,20,2013-03-01 20:53:00
3:53 PM,28.0,15.1,58,30.40,10.0,NNW,5.8,-,N/A,,Clear,340,2013-03-01 21:53:00
4:53 PM,28.0,14.0,56,30.40,10.0,NNE,6.9,-,N/A,,Clear,20,2013-03-01 22:53:00
5:53 PM,26.1,12.9,58,30.41,10.0,NE,4.6,-,N/A,,Clear,40,2013-03-01 23:53:00
6:53 PM,21.9,12.0,66,30.43,10.0,NNE,3.5,-,N/A,,Clear,20,2013-03-02 00:53:00
7:53 PM,19.0,10.9,71,30.43,10.0,NNE,3.5,-,N/A,,Partly Cloudy,20,2013-03-02 01:53:00
8:53 PM,12.9,7.0,77,30.43,10.0,Calm,Calm,-,N/A,,Clear,0,2013-03-02 02:53:00
9:53 PM,15.1,5.0,64,30.44,10.0,Calm,Calm,-,N/A,,Clear,0,2013-03-02 03:53:00
10:53 PM,9.0,-0.0,67,30.44,10.0,Calm,Calm,-,N/A,,Clear,0,2013-03-02 04:53:00
11:53 PM,9.0,-0.0,67,30.43,10.0,Calm,Calm,-,N/A,,Clear,0,2013-03-02 05:53:00